Location: Sobotiste
(48.7170°N, 17.4000°E)
Time: 02:28:13
(UTC+02:00)

METEOR M2 - Pass Details

Date: 15 March 2026
Orbit: 817 x 824 km, 98.5° (Epoch: 13 April)

Event Time Altitude Azimuth Distance (km) Brightness Sun altitude
Rises 03:58:21 0° 17° (NNE) 3,373 ? -21.1°
Reaches altitude 10° 04:00:45 10° 22° (NNE) 2,435 ? -20.8°
Maximum altitude 04:06:04 57° 101° (E) 964 ? -20.0°
Drops below altitude 10° 04:11:21 10° 180° (S) 2,417 ? -19.1°
Sets 04:13:43 0° 184° (S) 3,345 ? -18.8°
